Time,TemperatureF,DewpointF,PressureIn,WindDirection,WindDirectionDegrees,WindSpeedMPH,WindSpeedGustMPH,Humidity,HourlyPrecipIn,Conditions,Clouds,dailyrainin,SoftwareType,DateUTC
2013-05-18 00:02:00,51.3,48.7,30.10,West,276,7.0,20.0,91,0.00,,,0.00,meteohub,2013-05-18 07:02:00,
2013-05-18 00:07:00,51.3,48.7,30.10,West,278,9.0,17.0,91,0.00,,,0.00,meteohub,2013-05-18 07:07:00,
2013-05-18 00:12:00,51.3,48.7,30.10,WNW,288,13.0,17.0,91,0.00,,,0.00,meteohub,2013-05-18 07:12:00,
2013-05-18 00:17:00,51.3,49.1,30.10,West,261,12.0,17.0,92,0.00,,,0.00,meteohub,2013-05-18 07:17:00,
2013-05-18 00:22:00,51.3,49.1,30.10,WSW,256,9.0,18.0,92,0.00,,,0.00,meteohub,2013-05-18 07:22:00,
2013-05-18 00:27:00,51.1,48.9,30.10,WSW,239,9.0,19.0,92,0.00,,,0.00,meteohub,2013-05-18 07:27:00,
2013-05-18 00:32:00,51.1,48.9,30.10,West,269,6.0,19.0,92,0.00,,,0.00,meteohub,2013-05-18 07:32:00,
2013-05-18 00:37:00,51.1,48.9,30.10,WSW,254,9.0,19.0,92,0.00,,,0.00,meteohub,2013-05-18 07:37:00,
2013-05-18 00:42:00,51.1,48.9,30.10,West,280,12.0,15.0,92,0.00,,,0.00,meteohub,2013-05-18 07:42:00,
2013-05-18 00:47:00,50.9,48.7,30.10,West,268,9.0,17.0,92,0.00,,,0.00,meteohub,2013-05-18 07:47:00,
2013-05-18 00:52:00,50.9,48.9,30.10,NW,304,8.0,19.0,93,0.00,,,0.00,meteohub,2013-05-18 07:52:00,
2013-05-18 00:57:00,50.9,48.9,30.09,WNW,282,11.0,19.0,93,0.00,,,0.00,meteohub,2013-05-18 07:57:00,
2013-05-18 01:02:00,50.9,48.9,30.09,WSW,250,11.0,20.0,93,0.00,,,0.00,meteohub,2013-05-18 08:02:00,
2013-05-18 01:07:00,50.9,48.9,30.09,West,274,10.0,20.0,93,0.00,,,0.00,meteohub,2013-05-18 08:07:00,
2013-05-18 01:12:00,50.9,48.9,30.09,West,269,8.0,20.0,93,0.00,,,0.00,meteohub,2013-05-18 08:12:00,
2013-05-18 01:17:00,50.7,48.7,30.09,West,273,9.0,20.0,93,0.00,,,0.00,meteohub,2013-05-18 08:17:00,
2013-05-18 01:22:00,50.9,48.9,30.09,West,279,7.0,20.0,93,0.00,,,0.00,meteohub,2013-05-18 08:22:00,
2013-05-18 01:27:00,50.9,48.9,30.09,West,263,6.0,17.0,93,0.00,,,0.00,meteohub,2013-05-18 08:27:00,
2013-05-18 01:32:00,50.7,48.7,30.09,WSW,252,9.0,17.0,93,0.00,,,0.00,meteohub,2013-05-18 08:32:00,
2013-05-18 01:37:00,50.7,48.7,30.09,WNW,285,6.0,17.0,93,0.00,,,0.00,meteohub,2013-05-18 08:37:00,
2013-05-18 01:42:00,50.7,48.7,30.09,West,264,7.0,17.0,93,0.00,,,0.00,meteohub,2013-05-18 08:42:00,
2013-05-18 01:47:00,50.7,48.7,30.09,WNW,288,8.0,17.0,93,0.00,,,0.00,meteohub,2013-05-18 08:47:00,
2013-05-18 01:52:00,50.7,48.7,30.09,West,278,5.0,15.0,93,0.00,,,0.00,meteohub,2013-05-18 08:52:00,
2013-05-18 01:57:00,50.5,48.6,30.09,West,281,7.0,17.0,93,0.00,,,0.00,meteohub,2013-05-18 08:57:00,
2013-05-18 02:02:00,50.5,48.6,30.09,West,268,8.0,17.0,93,0.00,,,0.00,meteohub,2013-05-18 09:02:00,
2013-05-18 02:07:00,50.5,48.6,30.09,West,264,10.0,17.0,93,0.00,,,0.00,meteohub,2013-05-18 09:07:00,
2013-05-18 02:12:00,50.5,48.6,30.09,WNW,290,8.0,17.0,93,0.00,,,0.00,meteohub,2013-05-18 09:12:00,
2013-05-18 02:17:00,50.5,48.6,30.09,WNW,295,6.0,16.0,93,0.00,,,0.00,meteohub,2013-05-18 09:17:00,
2013-05-18 02:22:00,50.5,48.6,30.09,WNW,293,8.0,13.0,93,0.00,,,0.00,meteohub,2013-05-18 09:22:00,
2013-05-18 02:27:00,50.4,48.7,30.09,WSW,253,4.0,16.0,94,0.00,,,0.00,meteohub,2013-05-18 09:27:00,
2013-05-18 02:32:00,50.4,48.7,30.09,West,281,4.0,16.0,94,0.00,,,0.00,meteohub,2013-05-18 09:32:00,
2013-05-18 02:37:00,50.4,48.7,30.09,West,274,5.0,16.0,94,0.00,,,0.00,meteohub,2013-05-18 09:37:00,
2013-05-18 02:42:00,50.4,48.7,30.09,WNW,291,10.0,17.0,94,0.00,,,0.00,meteohub,2013-05-18 09:42:00,
2013-05-18 02:47:00,50.4,48.7,30.09,WSW,257,9.0,17.0,94,0.00,,,0.00,meteohub,2013-05-18 09:47:00,
2013-05-18 02:52:00,50.4,48.7,30.09,West,261,4.0,17.0,94,0.00,,,0.00,meteohub,2013-05-18 09:52:00,
2013-05-18 02:57:00,50.4,48.7,30.09,WNW,283,11.0,16.0,94,0.00,,,0.00,meteohub,2013-05-18 09:57:00,
2013-05-18 03:02:00,50.4,48.7,30.09,WNW,285,8.0,17.0,94,0.00,,,0.00,meteohub,2013-05-18 10:02:00,
2013-05-18 03:07:00,50.4,48.7,30.09,West,270,5.0,17.0,94,0.00,,,0.00,meteohub,2013-05-18 10:07:00,
2013-05-18 03:12:00,50.4,48.7,30.09,WNW,295,9.0,17.0,94,0.00,,,0.00,meteohub,2013-05-18 10:12:00,
2013-05-18 03:17:00,50.4,48.7,30.09,West,276,9.0,15.0,94,0.00,,,0.00,meteohub,2013-05-18 10:17:00,
2013-05-18 03:22:00,50.2,48.6,30.09,West,278,7.0,15.0,94,0.00,,,0.00,meteohub,2013-05-18 10:22:00,
2013-05-18 03:27:00,50.2,48.6,30.09,WNW,294,6.0,16.0,94,0.00,,,0.00,meteohub,2013-05-18 10:27:00,
2013-05-18 03:32:00,50.2,48.6,30.09,West,279,4.0,16.0,94,0.00,,,0.00,meteohub,2013-05-18 10:32:00,
2013-05-18 03:37:00,50.2,48.6,30.09,WNW,285,5.0,16.0,94,0.00,,,0.00,meteohub,2013-05-18 10:37:00,
2013-05-18 03:42:00,50.0,48.4,30.09,WNW,283,0.0,11.0,94,0.00,,,0.00,meteohub,2013-05-18 10:42:00,
2013-05-18 03:47:00,50.0,48.4,30.08,WNW,283,5.0,10.0,94,0.00,,,0.00,meteohub,2013-05-18 10:47:00,
2013-05-18 03:52:00,49.8,48.2,30.09,West,274,4.0,10.0,94,0.00,,,0.00,meteohub,2013-05-18 10:52:00,
2013-05-18 03:57:00,49.8,48.2,30.09,WNW,289,5.0,10.0,94,0.00,,,0.00,meteohub,2013-05-18 10:57:00,
2013-05-18 04:02:00,49.8,48.2,30.09,WNW,286,6.0,9.0,94,0.00,,,0.00,meteohub,2013-05-18 11:02:00,
2013-05-18 04:07:00,49.6,48.0,30.09,NW,311,0.0,9.0,94,0.00,,,0.00,meteohub,2013-05-18 11:07:00,
2013-05-18 04:12:00,49.6,48.0,30.09,NW,311,0.0,8.0,94,0.00,,,0.00,meteohub,2013-05-18 11:12:00,
2013-05-18 04:17:00,49.6,48.0,30.09,NW,304,0.0,8.0,94,0.00,,,0.00,meteohub,2013-05-18 11:17:00,
2013-05-18 04:22:00,49.5,47.8,30.09,NW,304,0.0,6.0,94,0.00,,,0.00,meteohub,2013-05-18 11:22:00,
2013-05-18 04:27:00,49.5,47.8,30.09,NW,304,0.0,2.0,94,0.00,,,0.00,meteohub,2013-05-18 11:27:00,
2013-05-18 04:32:00,49.5,47.8,30.09,NW,304,0.0,2.0,94,0.00,,,0.00,meteohub,2013-05-18 11:32:00,
2013-05-18 04:37:00,49.5,47.8,30.09,NW,304,0.0,1.0,94,0.00,,,0.00,meteohub,2013-05-18 11:37:00,
2013-05-18 04:42:00,49.3,47.7,30.09,NW,304,0.0,1.0,94,0.00,,,0.00,meteohub,2013-05-18 11:42:00,
2013-05-18 04:47:00,49.3,47.7,30.09,NW,304,0.0,0.0,94,0.00,,,0.00,meteohub,2013-05-18 11:47:00,
2013-05-18 04:52:00,49.1,47.5,30.09,NW,304,0.0,0.0,94,0.00,,,0.00,meteohub,2013-05-18 11:52:00,
2013-05-18 04:57:00,48.9,47.3,30.09,NW,304,0.0,0.0,94,0.00,,,0.00,meteohub,2013-05-18 11:57:00,
2013-05-18 05:02:00,48.9,47.3,30.09,NW,304,0.0,0.0,94,0.00,,,0.00,meteohub,2013-05-18 12:02:00,
2013-05-18 05:07:00,48.9,47.3,30.09,NW,304,0.0,0.0,94,0.00,,,0.00,meteohub,2013-05-18 12:07:00,
2013-05-18 05:12:00,48.9,47.3,30.09,NW,304,0.0,0.0,94,0.00,,,0.00,meteohub,2013-05-18 12:12:00,
2013-05-18 05:17:00,48.9,47.3,30.10,NW,304,0.0,1.0,94,0.00,,,0.00,meteohub,2013-05-18 12:17:00,
2013-05-18 05:22:00,48.9,47.3,30.09,NW,304,0.0,1.0,94,0.00,,,0.00,meteohub,2013-05-18 12:22:00,
2013-05-18 05:27:00,48.9,47.3,30.10,WNW,303,1.0,2.0,94,0.00,,,0.00,meteohub,2013-05-18 12:27:00,
2013-05-18 05:32:00,49.1,47.5,30.10,WNW,295,1.0,2.0,94,0.00,,,0.00,meteohub,2013-05-18 12:32:00,
2013-05-18 05:37:00,49.1,47.5,30.10,WNW,297,1.0,2.0,94,0.00,,,0.00,meteohub,2013-05-18 12:37:00,
2013-05-18 05:42:00,49.3,47.7,30.10,WNW,283,1.0,3.0,94,0.00,,,0.00,meteohub,2013-05-18 12:42:00,
2013-05-18 05:47:00,49.3,47.8,30.10,WNW,285,0.0,6.0,95,0.00,,,0.00,meteohub,2013-05-18 12:47:00,
2013-05-18 05:52:00,49.5,48.0,30.10,WNW,297,0.0,10.0,95,0.00,,,0.00,meteohub,2013-05-18 12:52:00,
2013-05-18 05:57:00,49.5,48.0,30.10,WNW,290,1.0,10.0,95,0.00,,,0.00,meteohub,2013-05-18 12:57:00,
2013-05-18 06:02:00,49.5,48.0,30.10,WNW,290,1.0,7.0,95,0.00,,,0.00,meteohub,2013-05-18 13:02:00,
2013-05-18 06:07:00,49.5,48.0,30.11,WNW,284,1.0,11.0,95,0.00,,,0.00,meteohub,2013-05-18 13:07:00,
2013-05-18 06:12:00,49.5,48.0,30.11,WNW,283,0.0,11.0,95,0.00,,,0.00,meteohub,2013-05-18 13:12:00,
2013-05-18 06:17:00,49.5,48.0,30.11,West,276,0.0,11.0,95,0.00,,,0.00,meteohub,2013-05-18 13:17:00,
2013-05-18 06:22:00,49.5,48.0,30.11,West,269,0.0,9.0,95,0.00,,,0.00,meteohub,2013-05-18 13:22:00,
2013-05-18 06:27:00,49.5,48.0,30.11,WNW,288,2.0,3.0,95,0.00,,,0.00,meteohub,2013-05-18 13:27:00,
2013-05-18 06:32:00,49.5,48.0,30.12,West,277,1.0,10.0,95,0.00,,,0.00,meteohub,2013-05-18 13:32:00,
2013-05-18 06:37:00,49.5,48.0,30.12,WNW,284,5.0,10.0,95,0.00,,,0.00,meteohub,2013-05-18 13:37:00,
2013-05-18 06:42:00,49.5,48.0,30.12,WNW,289,7.0,10.0,95,0.00,,,0.00,meteohub,2013-05-18 13:42:00,
2013-05-18 06:47:00,49.5,48.0,30.12,WSW,258,6.0,13.0,95,0.00,,,0.00,meteohub,2013-05-18 13:47:00,
2013-05-18 06:52:00,49.5,48.0,30.12,WNW,294,7.0,13.0,95,0.00,,,0.00,meteohub,2013-05-18 13:52:00,
2013-05-18 06:57:00,49.5,48.0,30.12,NW,307,7.0,12.0,95,0.00,,,0.00,meteohub,2013-05-18 13:57:00,
2013-05-18 07:02:00,49.6,48.2,30.13,WNW,292,5.0,12.0,95,0.00,,,0.00,meteohub,2013-05-18 14:02:00,
2013-05-18 07:07:00,49.6,48.2,30.13,WSW,251,5.0,12.0,95,0.00,,,0.00,meteohub,2013-05-18 14:07:00,
2013-05-18 07:12:00,49.6,48.2,30.13,WNW,299,6.0,12.0,95,0.00,,,0.00,meteohub,2013-05-18 14:12:00,
2013-05-18 07:17:00,49.8,48.4,30.13,West,281,1.0,10.0,95,0.00,,,0.00,meteohub,2013-05-18 14:17:00,
2013-05-18 07:22:00,49.8,48.4,30.13,WNW,303,1.0,10.0,95,0.00,,,0.00,meteohub,2013-05-18 14:22:00,
2013-05-18 07:27:00,50.2,48.7,30.13,WNW,287,1.0,10.0,95,0.00,,,0.00,meteohub,2013-05-18 14:27:00,
2013-05-18 07:32:00,50.2,48.7,30.13,WSW,252,2.0,6.0,95,0.00,,,0.00,meteohub,2013-05-18 14:32:00,
2013-05-18 07:37:00,50.4,48.9,30.13,West,276,2.0,8.0,95,0.00,,,0.00,meteohub,2013-05-18 14:37:00,
2013-05-18 07:42:00,50.4,48.7,30.13,WNW,302,0.0,8.0,94,0.00,,,0.00,meteohub,2013-05-18 14:42:00,
2013-05-18 07:47:00,50.5,48.9,30.13,WNW,290,0.0,10.0,94,0.00,,,0.00,meteohub,2013-05-18 14:47:00,
2013-05-18 07:52:00,50.5,48.9,30.13,West,262,0.0,10.0,94,0.00,,,0.00,meteohub,2013-05-18 14:52:00,
2013-05-18 07:57:00,50.7,49.1,30.13,West,266,1.0,10.0,94,0.00,,,0.00,meteohub,2013-05-18 14:57:00,
2013-05-18 08:02:00,50.9,48.9,30.13,West,278,0.0,9.0,93,0.00,,,0.00,meteohub,2013-05-18 15:02:00,
2013-05-18 08:07:00,51.1,49.1,30.13,West,265,1.0,5.0,93,0.00,,,0.00,meteohub,2013-05-18 15:07:00,
2013-05-18 08:12:00,51.3,49.3,30.13,West,259,0.0,5.0,93,0.00,,,0.00,meteohub,2013-05-18 15:12:00,
2013-05-18 08:17:00,51.4,49.3,30.14,West,259,0.0,2.0,92,0.00,,,0.00,meteohub,2013-05-18 15:17:00,
2013-05-18 08:22:00,51.8,49.6,30.14,West,259,0.0,1.0,92,0.00,,,0.00,meteohub,2013-05-18 15:22:00,
2013-05-18 08:27:00,52.0,49.5,30.14,West,259,0.0,1.0,91,0.00,,,0.00,meteohub,2013-05-18 15:27:00,
2013-05-18 08:32:00,52.2,49.3,30.14,WSW,254,0.0,0.0,90,0.00,,,0.00,meteohub,2013-05-18 15:32:00,
2013-05-18 08:37:00,52.3,49.5,30.14,WSW,254,0.0,0.0,90,0.00,,,0.00,meteohub,2013-05-18 15:37:00,
2013-05-18 08:42:00,52.5,49.5,30.14,WSW,243,0.0,1.0,89,0.00,,,0.00,meteohub,2013-05-18 15:42:00,
2013-05-18 08:47:00,52.7,49.5,30.14,WSW,242,0.0,1.0,89,0.00,,,0.00,meteohub,2013-05-18 15:47:00,
2013-05-18 08:52:00,52.9,49.5,30.14,WSW,242,0.0,1.0,88,0.00,,,0.00,meteohub,2013-05-18 15:52:00,
2013-05-18 08:57:00,53.1,49.6,30.14,WSW,243,0.0,1.0,88,0.00,,,0.00,meteohub,2013-05-18 15:57:00,
2013-05-18 09:02:00,53.2,49.8,30.14,WSW,242,1.0,1.0,88,0.00,,,0.00,meteohub,2013-05-18 16:02:00,
2013-05-18 09:07:00,53.2,49.5,30.14,WSW,255,1.0,1.0,87,0.00,,,0.00,meteohub,2013-05-18 16:07:00,
2013-05-18 09:12:00,53.4,49.6,30.14,WSW,255,0.0,1.0,87,0.00,,,0.00,meteohub,2013-05-18 16:12:00,
2013-05-18 09:17:00,54.0,50.2,30.14,WSW,238,0.0,1.0,87,0.00,,,0.00,meteohub,2013-05-18 16:17:00,
2013-05-18 09:22:00,54.5,50.4,30.15,SW,236,1.0,1.0,86,0.00,,,0.00,meteohub,2013-05-18 16:22:00,
2013-05-18 09:27:00,54.5,50.0,30.15,SW,214,0.0,2.0,85,0.00,,,0.00,meteohub,2013-05-18 16:27:00,
2013-05-18 09:32:00,54.3,50.2,30.15,WSW,250,0.0,2.0,86,0.00,,,0.00,meteohub,2013-05-18 16:32:00,
2013-05-18 09:37:00,54.5,50.0,30.15,WSW,252,1.0,2.0,85,0.00,,,0.00,meteohub,2013-05-18 16:37:00,
2013-05-18 09:42:00,54.5,50.4,30.16,West,262,3.0,4.0,86,0.00,,,0.00,meteohub,2013-05-18 16:42:00,
2013-05-18 09:47:00,54.3,49.8,30.16,West,264,0.0,5.0,85,0.00,,,0.00,meteohub,2013-05-18 16:47:00,
2013-05-18 09:52:00,54.1,49.8,30.16,West,266,1.0,5.0,85,0.00,,,0.00,meteohub,2013-05-18 16:52:00,
2013-05-18 09:57:00,54.3,50.2,30.16,WSW,256,1.0,5.0,86,0.00,,,0.00,meteohub,2013-05-18 16:57:00,
2013-05-18 10:02:00,54.1,49.8,30.16,WSW,252,0.0,4.0,85,0.00,,,0.00,meteohub,2013-05-18 17:02:00,
2013-05-18 10:07:00,54.5,50.0,30.16,West,262,0.0,5.0,85,0.00,,,0.00,meteohub,2013-05-18 17:07:00,
2013-05-18 10:12:00,54.7,50.2,30.15,West,262,0.0,5.0,85,0.00,,,0.00,meteohub,2013-05-18 17:12:00,
2013-05-18 10:17:00,54.9,50.2,30.15,West,262,0.0,2.0,84,0.00,,,0.00,meteohub,2013-05-18 17:17:00,
2013-05-18 10:22:00,55.2,50.2,30.15,West,279,0.0,6.0,83,0.00,,,0.00,meteohub,2013-05-18 17:22:00,
2013-05-18 10:27:00,55.2,50.2,30.15,SW,223,0.0,6.0,83,0.00,,,0.00,meteohub,2013-05-18 17:27:00,
2013-05-18 10:32:00,55.2,49.8,30.16,West,275,0.0,3.0,82,0.00,,,0.00,meteohub,2013-05-18 17:32:00,
2013-05-18 10:37:00,55.9,50.5,30.15,SW,226,0.0,3.0,82,0.00,,,0.00,meteohub,2013-05-18 17:37:00,
2013-05-18 10:42:00,56.3,50.2,30.16,West,266,0.0,3.0,80,0.00,,,0.00,meteohub,2013-05-18 17:42:00,
2013-05-18 10:47:00,55.9,50.2,30.16,West,269,0.0,2.0,81,0.00,,,0.00,meteohub,2013-05-18 17:47:00,
2013-05-18 10:52:00,56.3,50.5,30.15,West,274,0.0,3.0,81,0.00,,,0.00,meteohub,2013-05-18 17:52:00,
2013-05-18 10:57:00,56.5,50.4,30.16,SW,227,0.0,3.0,80,0.00,,,0.00,meteohub,2013-05-18 17:57:00,
2013-05-18 11:02:00,56.8,50.7,30.16,WSW,238,1.0,1.0,80,0.00,,,0.00,meteohub,2013-05-18 18:02:00,
2013-05-18 11:07:00,56.7,50.2,30.15,SW,236,0.0,3.0,79,0.00,,,0.00,meteohub,2013-05-18 18:07:00,
2013-05-18 11:12:00,56.8,50.4,30.15,WSW,238,0.0,3.0,79,0.00,,,0.00,meteohub,2013-05-18 18:12:00,
2013-05-18 11:17:00,57.4,50.5,30.15,WSW,237,0.0,3.0,78,0.00,,,0.00,meteohub,2013-05-18 18:17:00,
2013-05-18 11:22:00,57.4,50.5,30.15,WSW,248,0.0,3.0,78,0.00,,,0.00,meteohub,2013-05-18 18:22:00,
2013-05-18 11:27:00,57.6,50.7,30.15,WSW,243,0.0,4.0,78,0.00,,,0.00,meteohub,2013-05-18 18:27:00,
2013-05-18 11:32:00,57.7,50.5,30.15,West,265,1.0,4.0,77,0.00,,,0.00,meteohub,2013-05-18 18:32:00,
2013-05-18 11:37:00,57.9,50.7,30.15,West,272,0.0,4.0,77,0.00,,,0.00,meteohub,2013-05-18 18:37:00,
2013-05-18 11:42:00,57.9,50.7,30.15,WSW,248,1.0,3.0,77,0.00,,,0.00,meteohub,2013-05-18 18:42:00,
2013-05-18 11:47:00,57.9,51.1,30.16,West,262,1.0,6.0,78,0.00,,,0.00,meteohub,2013-05-18 18:47:00,
2013-05-18 11:52:00,57.7,50.9,30.16,WNW,284,4.0,6.0,78,0.00,,,0.00,meteohub,2013-05-18 18:52:00,
2013-05-18 11:57:00,57.4,50.9,30.16,WNW,302,1.0,6.0,79,0.00,,,0.00,meteohub,2013-05-18 18:57:00,
2013-05-18 12:02:00,57.6,51.1,30.16,WNW,301,0.0,6.0,79,0.00,,,0.00,meteohub,2013-05-18 19:02:00,
2013-05-18 12:07:00,57.6,50.7,30.16,West,274,0.0,7.0,78,0.00,,,0.00,meteohub,2013-05-18 19:07:00,
2013-05-18 12:12:00,57.9,51.1,30.16,WNW,285,1.0,7.0,78,0.00,,,0.00,meteohub,2013-05-18 19:12:00,
2013-05-18 12:17:00,58.1,50.9,30.16,WNW,302,1.0,6.0,77,0.00,,,0.00,meteohub,2013-05-18 19:17:00,
2013-05-18 12:22:00,58.3,50.4,30.16,West,261,5.0,7.0,75,0.00,,,0.00,meteohub,2013-05-18 19:22:00,
2013-05-18 12:27:00,58.5,50.9,30.16,West,271,6.0,9.0,76,0.00,,,0.00,meteohub,2013-05-18 19:27:00,
2013-05-18 12:32:00,58.3,50.7,30.16,West,263,6.0,10.0,76,0.00,,,0.00,meteohub,2013-05-18 19:32:00,
2013-05-18 12:37:00,58.1,50.5,30.16,WNW,300,1.0,11.0,76,0.00,,,0.00,meteohub,2013-05-18 19:37:00,
2013-05-18 12:42:00,58.1,50.9,30.15,NW,307,8.0,13.0,77,0.00,,,0.00,meteohub,2013-05-18 19:42:00,
2013-05-18 12:47:00,58.5,51.3,30.15,West,266,1.0,13.0,77,0.00,,,0.00,meteohub,2013-05-18 19:47:00,
2013-05-18 12:52:00,59.0,51.1,30.15,NW,307,2.0,12.0,75,0.00,,,0.00,meteohub,2013-05-18 19:52:00,
2013-05-18 12:57:00,59.2,51.3,30.15,WNW,300,2.0,11.0,75,0.00,,,0.00,meteohub,2013-05-18 19:57:00,
2013-05-18 13:02:00,59.4,51.1,30.15,NW,318,4.0,11.0,74,0.00,,,0.00,meteohub,2013-05-18 20:02:00,
2013-05-18 13:07:00,59.5,51.3,30.15,WNW,283,10.0,11.0,74,0.00,,,0.00,meteohub,2013-05-18 20:07:00,
2013-05-18 13:12:00,59.2,50.5,30.15,West,272,10.0,11.0,73,0.00,,,0.00,meteohub,2013-05-18 20:12:00,
2013-05-18 13:17:00,58.8,50.5,30.15,West,276,7.0,14.0,74,0.00,,,0.00,meteohub,2013-05-18 20:17:00,
2013-05-18 13:22:00,59.2,50.9,30.15,WNW,282,7.0,14.0,74,0.00,,,0.00,meteohub,2013-05-18 20:22:00,
2013-05-18 13:27:00,58.8,50.2,30.15,NNW,330,4.0,14.0,73,0.00,,,0.00,meteohub,2013-05-18 20:27:00,
2013-05-18 13:32:00,58.6,50.4,30.15,WNW,303,2.0,13.0,74,0.00,,,0.00,meteohub,2013-05-18 20:32:00,
2013-05-18 13:37:00,58.8,50.2,30.15,WSW,258,8.0,13.0,73,0.00,,,0.00,meteohub,2013-05-18 20:37:00,
2013-05-18 13:42:00,58.6,50.0,30.15,NW,318,2.0,16.0,73,0.00,,,0.00,meteohub,2013-05-18 20:42:00,
2013-05-18 13:47:00,58.8,50.5,30.15,WNW,302,2.0,18.0,74,0.00,,,0.00,meteohub,2013-05-18 20:47:00,
2013-05-18 13:52:00,59.2,50.5,30.15,NW,322,6.0,18.0,73,0.00,,,0.00,meteohub,2013-05-18 20:52:00,
2013-05-18 13:58:00,59.4,50.4,30.15,WNW,290,6.0,18.0,72,0.00,,,0.00,meteohub,2013-05-18 20:58:00,
2013-05-18 14:03:00,59.2,50.2,30.15,NW,311,2.0,15.0,72,0.00,,,0.00,meteohub,2013-05-18 21:03:00,
2013-05-18 14:08:00,59.0,50.4,30.15,NNW,329,5.0,15.0,73,0.00,,,0.00,meteohub,2013-05-18 21:08:00,
2013-05-18 14:13:00,59.0,50.4,30.15,North,351,12.0,15.0,73,0.00,,,0.00,meteohub,2013-05-18 21:13:00,
2013-05-18 14:18:00,59.5,50.5,30.14,NNW,339,2.0,18.0,72,0.00,,,0.00,meteohub,2013-05-18 21:18:00,
2013-05-18 14:23:00,59.4,50.4,30.15,WNW,302,9.0,18.0,72,0.00,,,0.00,meteohub,2013-05-18 21:23:00,
2013-05-18 14:28:00,59.7,51.1,30.14,NW,309,15.0,16.0,73,0.00,,,0.00,meteohub,2013-05-18 21:28:00,
2013-05-18 14:33:00,59.5,50.5,30.14,WNW,302,4.0,16.0,72,0.00,,,0.00,meteohub,2013-05-18 21:33:00,
2013-05-18 14:38:00,59.7,50.7,30.14,NW,307,5.0,17.0,72,0.00,,,0.00,meteohub,2013-05-18 21:38:00,
2013-05-18 14:43:00,59.5,50.5,30.14,NNW,334,18.0,22.0,72,0.00,,,0.00,meteohub,2013-05-18 21:43:00,
2013-05-18 14:48:00,59.2,50.5,30.15,NW,319,11.0,22.0,73,0.00,,,0.00,meteohub,2013-05-18 21:48:00,
2013-05-18 14:53:00,59.4,51.1,30.14,NNW,329,12.0,23.0,74,0.00,,,0.00,meteohub,2013-05-18 21:53:00,
2013-05-18 14:58:00,59.4,51.1,30.14,NW,326,0.0,23.0,74,0.00,,,0.00,meteohub,2013-05-18 21:58:00,
2013-05-18 15:03:00,59.5,51.3,30.14,WNW,302,5.0,23.0,74,0.00,,,0.00,meteohub,2013-05-18 22:03:00,
2013-05-18 15:08:00,59.7,51.4,30.14,NW,313,1.0,21.0,74,0.00,,,0.00,meteohub,2013-05-18 22:08:00,
2013-05-18 15:13:00,60.1,51.1,30.14,NNW,340,0.0,18.0,72,0.00,,,0.00,meteohub,2013-05-18 22:13:00,
2013-05-18 15:18:00,59.7,51.1,30.14,WNW,298,3.0,18.0,73,0.00,,,0.00,meteohub,2013-05-18 22:18:00,
2013-05-18 15:23:00,59.9,51.3,30.14,WNW,287,6.0,18.0,73,0.00,,,0.00,meteohub,2013-05-18 22:23:00,
2013-05-18 15:28:00,59.7,51.1,30.14,NW,314,4.0,19.0,73,0.00,,,0.00,meteohub,2013-05-18 22:28:00,
2013-05-18 15:33:00,59.7,51.4,30.14,NW,304,1.0,19.0,74,0.00,,,0.00,meteohub,2013-05-18 22:33:00,
2013-05-18 15:38:00,60.1,51.4,30.14,NNW,344,10.0,26.0,73,0.00,,,0.00,meteohub,2013-05-18 22:38:00,
2013-05-18 15:43:00,60.1,51.4,30.14,NNW,331,6.0,26.0,73,0.00,,,0.00,meteohub,2013-05-18 22:43:00,
2013-05-18 15:48:00,59.7,51.1,30.14,WNW,302,2.0,19.0,73,0.00,,,0.00,meteohub,2013-05-18 22:48:00,
2013-05-18 15:53:00,60.1,51.8,30.14,NW,316,1.0,18.0,74,0.00,,,0.00,meteohub,2013-05-18 22:53:00,
2013-05-18 15:58:00,60.4,51.8,30.14,NW,315,3.0,18.0,73,0.00,,,0.00,meteohub,2013-05-18 22:58:00,
2013-05-18 16:03:00,60.1,51.8,30.14,NW,316,5.0,18.0,74,0.00,,,0.00,meteohub,2013-05-18 23:03:00,
2013-05-18 16:09:00,59.7,51.4,30.14,NW,306,3.0,20.0,74,0.00,,,0.00,meteohub,2013-05-18 23:09:00,
2013-05-18 16:14:00,59.9,52.0,30.14,WNW,293,0.0,20.0,75,0.00,,,0.00,meteohub,2013-05-18 23:14:00,
2013-05-18 16:19:00,59.7,51.4,30.14,NNW,328,5.0,20.0,74,0.00,,,0.00,meteohub,2013-05-18 23:19:00,
2013-05-18 16:24:00,59.7,51.8,30.13,WNW,300,2.0,15.0,75,0.00,,,0.00,meteohub,2013-05-18 23:24:00,
2013-05-18 16:29:00,59.7,51.8,30.13,West,281,4.0,15.0,75,0.00,,,0.00,meteohub,2013-05-18 23:29:00,
2013-05-18 16:34:00,59.5,52.0,30.13,WNW,295,4.0,15.0,76,0.00,,,0.00,meteohub,2013-05-18 23:34:00,
2013-05-18 16:39:00,58.8,51.6,30.13,WNW,302,1.0,21.0,77,0.00,,,0.00,meteohub,2013-05-18 23:39:00,
2013-05-18 16:44:00,59.0,51.8,30.13,WNW,302,2.0,21.0,77,0.00,,,0.00,meteohub,2013-05-18 23:44:00,
2013-05-18 16:49:00,59.0,51.8,30.13,NW,310,3.0,22.0,77,0.00,,,0.00,meteohub,2013-05-18 23:49:00,
2013-05-18 16:54:00,58.5,51.6,30.13,WNW,292,19.0,23.0,78,0.00,,,0.00,meteohub,2013-05-18 23:54:00,
2013-05-18 16:59:00,58.3,51.8,30.13,West,271,4.0,23.0,79,0.00,,,0.00,meteohub,2013-05-18 23:59:00,
2013-05-18 17:04:00,58.5,52.0,30.13,WNW,284,1.0,23.0,79,0.00,,,0.00,meteohub,2013-05-19 00:04:00,
2013-05-18 17:09:00,58.5,52.0,30.13,WNW,301,5.0,22.0,79,0.00,,,0.00,meteohub,2013-05-19 00:09:00,
2013-05-18 17:14:00,58.6,52.5,30.13,West,261,7.0,20.0,80,0.00,,,0.00,meteohub,2013-05-19 00:14:00,
2013-05-18 17:19:00,58.8,52.3,30.13,NNW,329,6.0,16.0,79,0.00,,,0.00,meteohub,2013-05-19 00:19:00,
2013-05-18 17:24:00,58.8,52.3,30.13,NW,318,9.0,19.0,79,0.00,,,0.00,meteohub,2013-05-19 00:24:00,
2013-05-18 17:29:00,58.5,52.3,30.13,NW,311,6.0,19.0,80,0.00,,,0.00,meteohub,2013-05-19 00:29:00,
2013-05-18 17:34:00,58.3,52.5,30.13,NW,312,9.0,19.0,81,0.00,,,0.00,meteohub,2013-05-19 00:34:00,
2013-05-18 17:40:00,58.3,52.5,30.13,NW,321,6.0,19.0,81,0.00,,,0.00,meteohub,2013-05-19 00:40:00,
2013-05-18 17:45:00,58.1,52.7,30.13,NW,310,6.0,19.0,82,0.00,,,0.00,meteohub,2013-05-19 00:45:00,
2013-05-18 17:50:00,58.5,52.7,30.13,WNW,283,1.0,15.0,81,0.00,,,0.00,meteohub,2013-05-19 00:50:00,
2013-05-18 17:55:00,58.5,52.7,30.13,West,278,3.0,17.0,81,0.00,,,0.00,meteohub,2013-05-19 00:55:00,
2013-05-18 18:00:00,58.5,53.1,30.13,West,277,5.0,17.0,82,0.00,,,0.00,meteohub,2013-05-19 01:00:00,
2013-05-18 18:05:00,58.3,52.5,30.12,West,277,2.0,17.0,81,0.00,,,0.00,meteohub,2013-05-19 01:05:00,
2013-05-18 18:10:00,58.8,53.4,30.12,West,271,0.0,11.0,82,0.00,,,0.00,meteohub,2013-05-19 01:10:00,
2013-05-18 18:15:00,59.0,53.2,30.12,West,281,1.0,11.0,81,0.00,,,0.00,meteohub,2013-05-19 01:15:00,
2013-05-18 18:20:00,58.8,52.7,30.12,NW,312,0.0,11.0,80,0.00,,,0.00,meteohub,2013-05-19 01:20:00,
2013-05-18 18:25:00,58.5,52.7,30.12,NW,315,4.0,7.0,81,0.00,,,0.00,meteohub,2013-05-19 01:25:00,
2013-05-18 18:30:00,58.3,52.5,30.12,NW,314,3.0,17.0,81,0.00,,,0.00,meteohub,2013-05-19 01:30:00,
2013-05-18 18:35:00,57.9,52.5,30.12,NW,323,2.0,17.0,82,0.00,,,0.00,meteohub,2013-05-19 01:35:00,
2013-05-18 18:40:00,57.7,52.3,30.12,West,281,10.0,18.0,82,0.00,,,0.00,meteohub,2013-05-19 01:40:00,
2013-05-18 18:45:00,57.4,52.3,30.12,NW,322,0.0,20.0,83,0.00,,,0.00,meteohub,2013-05-19 01:45:00,
2013-05-18 18:50:00,57.6,52.5,30.12,WNW,301,3.0,20.0,83,0.00,,,0.00,meteohub,2013-05-19 01:50:00,
2013-05-18 18:55:00,57.4,52.3,30.12,WNW,299,6.0,20.0,83,0.00,,,0.00,meteohub,2013-05-19 01:55:00,
2013-05-18 19:00:00,57.0,52.0,30.12,NW,323,1.0,14.0,83,0.00,,,0.00,meteohub,2013-05-19 02:00:00,
2013-05-18 19:05:00,56.7,51.8,30.12,NNW,328,2.0,14.0,84,0.00,,,0.00,meteohub,2013-05-19 02:05:00,
2013-05-18 19:10:00,56.5,51.6,30.12,WNW,297,2.0,14.0,84,0.00,,,0.00,meteohub,2013-05-19 02:10:00,
2013-05-18 19:15:00,56.1,51.6,30.12,WNW,292,1.0,16.0,85,0.00,,,0.00,meteohub,2013-05-19 02:15:00,
2013-05-18 19:20:00,55.9,51.4,30.12,WNW,285,0.0,16.0,85,0.00,,,0.00,meteohub,2013-05-19 02:20:00,
2013-05-18 19:25:00,55.8,51.6,30.12,WNW,297,1.0,11.0,86,0.00,,,0.00,meteohub,2013-05-19 02:25:00,
2013-05-18 19:30:00,55.6,51.4,30.12,West,270,2.0,5.0,86,0.00,,,0.00,meteohub,2013-05-19 02:30:00,
2013-05-18 19:35:00,55.2,51.4,30.12,WNW,293,1.0,5.0,87,0.00,,,0.00,meteohub,2013-05-19 02:35:00,
2013-05-18 19:40:00,55.2,51.4,30.12,WSW,257,1.0,13.0,87,0.00,,,0.00,meteohub,2013-05-19 02:40:00,
2013-05-18 19:45:00,55.0,51.3,30.12,WSW,241,7.0,13.0,87,0.00,,,0.00,meteohub,2013-05-19 02:45:00,
2013-05-18 19:50:00,54.9,51.4,30.12,West,265,3.0,13.0,88,0.00,,,0.00,meteohub,2013-05-19 02:50:00,
2013-05-18 19:56:00,54.9,51.1,30.12,WSW,250,1.0,13.0,87,0.00,,,0.00,meteohub,2013-05-19 02:56:00,
2013-05-18 20:01:00,54.7,51.3,30.12,NW,311,0.0,13.0,88,0.00,,,0.00,meteohub,2013-05-19 03:01:00,
2013-05-18 20:06:00,54.7,51.3,30.12,WSW,243,3.0,8.0,88,0.00,,,0.00,meteohub,2013-05-19 03:06:00,
2013-05-18 20:11:00,54.3,50.9,30.12,WNW,293,4.0,10.0,88,0.00,,,0.00,meteohub,2013-05-19 03:11:00,
2013-05-18 20:16:00,54.1,50.9,30.12,WNW,287,4.0,10.0,89,0.00,,,0.00,meteohub,2013-05-19 03:16:00,
2013-05-18 20:21:00,54.0,50.7,30.12,WNW,290,1.0,10.0,89,0.00,,,0.00,meteohub,2013-05-19 03:21:00,
2013-05-18 20:26:00,53.8,50.5,30.12,West,268,4.0,9.0,89,0.00,,,0.00,meteohub,2013-05-19 03:26:00,
2013-05-18 20:31:00,53.6,50.7,30.12,WNW,285,3.0,9.0,90,0.00,,,0.00,meteohub,2013-05-19 03:31:00,
2013-05-18 20:36:00,53.4,50.5,30.12,WNW,296,1.0,9.0,90,0.00,,,0.00,meteohub,2013-05-19 03:36:00,
2013-05-18 20:41:00,53.2,50.4,30.12,West,278,1.0,9.0,90,0.00,,,0.00,meteohub,2013-05-19 03:41:00,
2013-05-18 20:46:00,53.2,50.4,30.12,WNW,298,1.0,9.0,90,0.00,,,0.00,meteohub,2013-05-19 03:46:00,
2013-05-18 20:51:00,53.2,50.4,30.12,West,281,2.0,9.0,90,0.00,,,0.00,meteohub,2013-05-19 03:51:00,
2013-05-18 20:56:00,53.2,50.4,30.12,WNW,285,0.0,7.0,90,0.00,,,0.00,meteohub,2013-05-19 03:56:00,
2013-05-18 21:01:00,53.1,50.5,30.12,WNW,291,1.0,7.0,91,0.00,,,0.00,meteohub,2013-05-19 04:01:00,
2013-05-18 21:02:00,53.1,50.5,30.12,WNW,292,0.0,7.0,91,0.00,,,0.00,meteohub,2013-05-19 04:02:00,
2013-05-18 21:03:00,53.1,50.5,30.12,WNW,303,1.0,7.0,91,0.00,,,0.00,meteohub,2013-05-19 04:03:00,
2013-05-18 21:05:00,53.1,50.5,30.12,West,273,4.0,7.0,91,0.00,,,0.00,meteohub,2013-05-19 04:05:00,
2013-05-18 21:10:00,53.1,50.5,30.12,West,278,1.0,7.0,91,0.00,,,0.00,meteohub,2013-05-19 04:10:00,
2013-05-18 21:15:00,53.1,50.5,30.12,WNW,298,1.0,8.0,91,0.00,,,0.00,meteohub,2013-05-19 04:15:00,
2013-05-18 21:20:00,53.2,50.7,30.13,WNW,298,0.0,8.0,91,0.00,,,0.00,meteohub,2013-05-19 04:20:00,
2013-05-18 21:25:00,53.2,50.7,30.13,West,268,1.0,8.0,91,0.00,,,0.00,meteohub,2013-05-19 04:25:00,
2013-05-18 21:30:00,53.2,50.4,30.13,NW,321,0.0,7.0,90,0.00,,,0.00,meteohub,2013-05-19 04:30:00,
2013-05-18 21:35:00,53.2,50.4,30.13,NW,323,0.0,7.0,90,0.00,,,0.00,meteohub,2013-05-19 04:35:00,
2013-05-18 21:40:00,53.2,50.4,30.12,NW,309,0.0,7.0,90,0.00,,,0.00,meteohub,2013-05-19 04:40:00,
2013-05-18 21:45:00,53.1,50.2,30.13,NW,309,0.0,6.0,90,0.00,,,0.00,meteohub,2013-05-19 04:45:00,
2013-05-18 21:50:00,53.1,50.2,30.13,NW,311,0.0,3.0,90,0.00,,,0.00,meteohub,2013-05-19 04:50:00,
2013-05-18 21:55:00,53.1,50.2,30.13,NW,311,0.0,4.0,90,0.00,,,0.00,meteohub,2013-05-19 04:55:00,
2013-05-18 22:00:00,53.1,50.2,30.13,NW,309,0.0,4.0,90,0.00,,,0.00,meteohub,2013-05-19 05:00:00,
2013-05-18 22:05:00,53.1,50.2,30.13,WNW,294,0.0,1.0,90,0.00,,,0.00,meteohub,2013-05-19 05:05:00,
2013-05-18 22:10:00,53.1,50.2,30.13,WNW,295,2.0,5.0,90,0.00,,,0.00,meteohub,2013-05-19 05:10:00,
2013-05-18 22:15:00,52.9,50.0,30.13,NW,309,0.0,5.0,90,0.00,,,0.00,meteohub,2013-05-19 05:15:00,
2013-05-18 22:20:00,52.7,49.8,30.13,NW,313,0.0,5.0,90,0.00,,,0.00,meteohub,2013-05-19 05:20:00,
2013-05-18 22:25:00,52.5,49.6,30.14,NW,325,0.0,5.0,90,0.00,,,0.00,meteohub,2013-05-19 05:25:00,
2013-05-18 22:30:00,52.5,49.6,30.13,NW,313,1.0,5.0,90,0.00,,,0.00,meteohub,2013-05-19 05:30:00,
2013-05-18 22:35:00,52.7,49.5,30.13,NW,304,2.0,6.0,89,0.00,,,0.00,meteohub,2013-05-19 05:35:00,
2013-05-18 22:40:00,52.7,49.5,30.14,NW,313,0.0,6.0,89,0.00,,,0.00,meteohub,2013-05-19 05:40:00,
2013-05-18 22:45:00,52.7,49.5,30.14,NW,313,0.0,6.0,89,0.00,,,0.00,meteohub,2013-05-19 05:45:00,
2013-05-18 22:50:00,52.9,49.5,30.14,NW,313,0.0,3.0,88,0.00,,,0.00,meteohub,2013-05-19 05:50:00,
2013-05-18 22:55:00,53.1,49.6,30.14,NW,312,0.0,3.0,88,0.00,,,0.00,meteohub,2013-05-19 05:55:00,
2013-05-18 23:01:00,53.2,49.5,30.14,NW,312,0.0,3.0,87,0.00,,,0.00,meteohub,2013-05-19 06:01:00,
2013-05-18 23:06:00,53.1,49.3,30.14,NW,312,0.0,2.0,87,0.00,,,0.00,meteohub,2013-05-19 06:06:00,
2013-05-18 23:11:00,53.1,49.3,30.14,WSW,255,3.0,4.0,87,0.00,,,0.00,meteohub,2013-05-19 06:11:00,
2013-05-18 23:16:00,53.1,48.9,30.14,West,261,0.0,7.0,86,0.00,,,0.00,meteohub,2013-05-19 06:16:00,
2013-05-18 23:21:00,52.9,49.1,30.14,West,278,0.0,7.0,87,0.00,,,0.00,meteohub,2013-05-19 06:21:00,
2013-05-18 23:26:00,52.5,48.7,30.13,West,273,1.0,7.0,87,0.00,,,0.00,meteohub,2013-05-19 06:26:00,
2013-05-18 23:31:00,52.3,48.9,30.13,WNW,295,1.0,7.0,88,0.00,,,0.00,meteohub,2013-05-19 06:31:00,
2013-05-18 23:36:00,52.2,49.1,30.13,West,278,5.0,9.0,89,0.00,,,0.00,meteohub,2013-05-19 06:36:00,
2013-05-18 23:41:00,52.2,49.1,30.13,NNW,335,4.0,9.0,89,0.00,,,0.00,meteohub,2013-05-19 06:41:00,
2013-05-18 23:46:00,52.2,49.1,30.13,West,266,2.0,8.0,89,0.00,,,0.00,meteohub,2013-05-19 06:46:00,
2013-05-18 23:51:00,52.0,48.9,30.13,NW,309,4.0,8.0,89,0.00,,,0.00,meteohub,2013-05-19 06:51:00,
2013-05-18 23:56:00,52.0,49.1,30.13,NW,306,5.0,8.0,90,0.00,,,0.00,meteohub,2013-05-19 06:56:00,